Location: Brusselsch Zeekanaal
(50.8667°N, 4.3667°E)
Time: 02:44:39
(UTC+00:00)

SL-08 RB Rocket - Pass Details

Date: 08 November 2025
Orbit: 632 x 668 km, 97.8° (Epoch: 14 December)

Event Time Altitude Azimuth Distance (km) Brightness Sun altitude
Rises 04:45:24 0° 9° (N) 3,019 7.2 -19.2°
Reaches altitude 10° 04:47:43 10° 3° (N) 2,097 6.3 -18.9°
Maximum altitude 04:52:04 45° 292° (WNW) 904 3.9 -18.2°
Enters shadow 04:54:04 28° 237° (WSW) 1,248 4.7 -17.9°
